Date String (YYYY-MM-DD hh:mm:ss) UTC,Instrument flags,absolute air pressure of the measurement (hPa),sample flow rate (lpm),inlet stack bypass flow (lpm),air temperature of the measurement (°C),ambient temperature measured by the external sensor (°C),aerosol sample conditioner tube jacket temperature (°C),OPC LED temperature (°C),internal box temperature (°C),relative humidity of the measurement (%),span deviation,mass concentration of particles derived from Lorenz-Mie calculation of OPC scattering (μg/m³),mass concentration of particles derived from Lorenz-Mie calculation of OPC scattering (μg/m³),mass concentration of particles derived from Lorenz-Mie calculation of OPC scattering (μg/m³)
DateTimeUTC,F1_M11,P_M11,Q1_M11,Q2_M11,T1_M11,T2_M11,T3_M11,T4_M11,T5_M11,U1_M11,ZSPAN_M11,X0_M11,X2_M11,X1_M11
2023-10-13 04:00:00,SystemResetWarning,0826.2,4.99,000.00,027.5,025.9,000.0,036.0,029.2,15.0,0000.0,0007.06,0000.98,0000.18
2023-10-13 04:01:00,SystemResetWarning,0826.2,5.00,000.00,027.5,025.9,000.0,036.0,029.2,15.0,0000.0,0006.06,0001.01,0000.18
2023-10-13 04:02:00,SystemResetWarning,0826.2,5.00,000.00,027.5,025.9,000.0,036.0,029.2,14.9,0000.0,0005.56,0000.96,0000.18
2023-10-13 04:03:00,SystemResetWarning,0826.2,5.00,000.00,027.5,025.9,000.0,036.0,029.1,14.9,0000.0,0005.54,0000.95,0000.18
2023-10-13 04:04:00,SystemResetWarning,0826.2,5.00,000.00,027.5,025.9,000.0,036.0,029.2,14.8,0000.0,0005.63,0000.97,0000.17
2023-10-13 04:05:00,SystemResetWarning,0826.2,5.00,000.00,027.5,025.9,000.0,036.0,029.2,14.8,0000.0,0005.29,0001.00,0000.16
2023-10-13 04:06:00,SystemResetWarning,0826.2,5.00,000.00,027.5,025.9,000.0,036.0,029.1,14.7,0000.0,0006.39,0000.99,0000.16
2023-10-13 04:07:00,SystemResetWarning,0826.2,5.00,000.00,027.5,025.9,000.0,036.0,029.1,14.6,0000.0,0006.91,0001.01,0000.15
2023-10-13 04:08:00,SystemResetWarning,0826.2,5.01,000.00,027.5,025.9,000.0,036.0,029.1,14.6,0000.0,0006.19,0000.95,0000.15
2023-10-13 04:09:00,SystemResetWarning,0826.2,5.01,000.00,027.5,025.8,000.0,036.0,029.1,14.6,0000.0,0005.14,0000.87,0000.14
2023-10-13 04:10:00,SystemResetWarning,0826.2,5.00,000.00,027.5,025.8,000.0,036.0,029.1,14.5,0000.0,0004.04,0000.77,0000.13
2023-10-13 04:11:00,SystemResetWarning,0826.2,5.00,000.00,027.5,025.8,000.0,035.9,029.1,14.5,0000.0,0004.54,0000.71,0000.12
2023-10-13 04:12:00,SystemResetWarning,0826.2,5.00,000.00,027.4,025.8,000.0,035.9,029.1,14.5,0000.0,0005.11,0000.67,0000.12
2023-10-13 04:13:00,SystemResetWarning,0826.2,5.00,000.00,027.4,025.8,000.0,035.9,029.1,14.4,0000.0,0005.09,0000.65,0000.11
2023-10-13 04:14:00,SystemResetWarning,0826.2,5.00,000.00,027.4,025.8,000.0,035.9,029.0,14.2,0000.0,0004.97,0000.63,0000.11
2023-10-13 04:15:00,SystemResetWarning,0826.2,5.00,000.00,027.4,025.8,000.0,035.9,029.0,14.1,0000.0,0005.23,0000.64,0000.11
2023-10-13 04:16:00,SystemResetWarning,0826.2,5.00,000.00,027.4,025.8,000.0,035.9,029.0,14.1,0000.0,0005.17,0000.60,0000.11
2023-10-13 04:17:00,SystemResetWarning,0826.3,4.99,000.00,027.4,025.8,000.0,035.9,029.0,14.0,0000.0,0003.76,0000.58,0000.11
2023-10-13 04:18:00,SystemResetWarning,0826.2,5.00,000.00,027.4,025.7,000.0,035.9,029.0,13.9,0000.0,0003.22,0000.54,0000.10
2023-10-13 04:19:00,SystemResetWarning,0826.3,4.99,000.00,027.4,025.7,000.0,035.9,029.0,14.0,0000.0,0003.22,0000.52,0000.09
2023-10-13 04:20:00,SystemResetWarning,0826.2,5.00,000.00,027.4,025.7,000.0,035.9,029.0,14.0,0000.0,0003.41,0000.51,0000.09
2023-10-13 04:21:00,SystemResetWarning,0826.3,5.01,000.00,027.4,025.7,000.0,035.9,029.0,14.0,0000.0,0003.63,0000.48,0000.09
2023-10-13 04:22:00,SystemResetWarning,0826.2,5.01,000.00,027.4,025.7,000.0,035.8,029.0,14.0,0000.0,0003.59,0000.49,0000.09
2023-10-13 04:23:00,SystemResetWarning,0826.2,5.01,000.00,027.4,025.7,000.0,035.8,029.0,14.0,0000.0,0003.76,0000.51,0000.09
2023-10-13 04:24:00,SystemResetWarning,0826.2,4.99,000.00,027.3,025.7,000.0,035.8,029.0,13.9,0000.0,0003.91,0000.53,0000.09
2023-10-13 04:25:00,SystemResetWarning,0826.2,5.00,000.00,027.3,025.7,000.0,035.8,029.0,13.9,0000.0,0004.18,0000.53,0000.09
2023-10-13 04:26:00,SystemResetWarning,0826.2,5.00,000.00,027.3,025.7,000.0,035.8,029.0,13.8,0000.0,0004.07,0000.53,0000.09
2023-10-13 04:27:00,SystemResetWarning,0826.2,5.00,000.00,027.3,025.7,000.0,035.8,029.0,13.9,0000.0,0004.26,0000.56,0000.09
2023-10-13 04:28:00,SystemResetWarning,0826.2,5.00,000.00,027.3,025.7,000.0,035.8,028.9,13.9,0000.0,0006.52,0000.57,0000.10
2023-10-13 04:29:00,SystemResetWarning,0826.1,4.99,000.00,027.3,025.7,000.0,035.8,028.9,13.8,0000.0,0006.79,0000.55,0000.11
2023-10-13 04:30:00,SystemResetWarning,0826.2,5.00,000.00,027.3,025.7,000.0,035.8,028.9,13.7,0000.0,0007.45,0000.56,0000.12
2023-10-13 04:31:00,SystemResetWarning,0826.2,5.01,000.00,027.3,025.6,000.0,035.8,028.9,13.7,0000.0,0007.56,0000.60,0000.13
2023-10-13 04:32:00,SystemResetWarning,0826.2,5.01,000.00,027.3,025.6,000.0,035.8,028.8,13.6,0000.0,0007.89,0000.62,0000.13
2023-10-13 04:33:00,SystemResetWarning,0826.2,5.01,000.00,027.2,025.6,000.0,035.8,028.8,13.6,0000.0,0007.92,0000.63,0000.13
2023-10-13 04:34:00,SystemResetWarning,0826.2,5.00,000.00,027.2,025.6,000.0,035.8,028.8,13.5,0000.0,0007.43,0000.65,0000.14
2023-10-13 04:35:00,SystemResetWarning,0826.2,4.99,000.00,027.2,025.5,000.0,035.8,028.8,13.5,0000.0,0007.50,0000.71,0000.15
2023-10-13 04:36:00,SystemResetWarning,0826.2,4.99,000.00,027.2,025.5,000.0,035.7,028.7,13.5,0000.0,0007.43,0000.75,0000.16
2023-10-13 04:37:00,SystemResetWarning,0826.3,5.00,000.00,027.2,025.5,000.0,035.7,028.7,13.4,0000.0,0007.39,0000.76,0000.16
2023-10-13 04:38:00,SystemResetWarning,0826.4,5.01,000.00,027.1,025.5,000.0,035.7,028.7,13.4,0000.0,0007.25,0000.77,0000.16
2023-10-13 04:39:00,SystemResetWarning,0826.3,5.00,000.00,027.1,025.4,000.0,035.7,028.7,13.4,0000.0,0005.70,0000.79,0000.16
2023-10-13 04:40:00,SystemResetWarning,0826.3,4.99,000.00,027.1,025.4,000.0,035.7,028.7,13.3,0000.0,0005.76,0000.87,0000.16
2023-10-13 04:41:00,SystemResetWarning,0826.3,5.00,000.00,027.1,025.4,000.0,035.7,028.7,13.3,0000.0,0004.78,0000.89,0000.16
2023-10-13 04:42:00,SystemResetWarning,0826.3,5.00,000.00,027.1,025.4,000.0,035.7,028.7,13.3,0000.0,0004.84,0000.90,0000.16
2023-10-13 04:43:00,SystemResetWarning,0826.4,5.00,000.00,027.1,025.4,000.0,035.6,028.6,13.2,0000.0,0003.88,0000.92,0000.16
2023-10-13 04:44:00,SystemResetWarning,0826.3,5.01,000.00,027.0,025.4,000.0,035.6,028.6,13.2,0000.0,0004.87,0000.94,0000.16
2023-10-13 04:45:00,SystemResetWarning,0826.4,5.01,000.00,027.0,025.4,000.0,035.6,028.6,13.2,0000.0,0004.92,0000.94,0000.17
2023-10-13 04:46:00,SystemResetWarning,0826.4,5.00,000.00,027.0,025.4,000.0,035.6,028.6,13.2,0000.0,0004.73,0000.93,0000.15
2023-10-13 04:47:00,SystemResetWarning,0826.4,5.00,000.00,027.0,025.4,000.0,035.6,028.6,13.2,0000.0,0005.09,0000.96,0000.15
2023-10-13 04:48:00,SystemResetWarning,0826.4,5.00,000.00,027.0,025.4,000.0,035.5,028.6,13.2,0000.0,0006.01,0000.95,0000.16
2023-10-13 04:49:00,SystemResetWarning,0826.5,5.00,000.00,027.0,025.4,000.0,035.5,028.6,13.2,0000.0,0006.16,0000.97,0000.16
2023-10-13 04:50:00,SystemResetWarning,0826.5,5.00,000.00,027.0,025.4,000.0,035.5,028.6,13.3,0000.0,0006.00,0000.98,0000.16
2023-10-13 04:51:00,SystemResetWarning,0826.5,5.00,000.00,027.0,025.4,000.0,035.5,028.6,13.4,0000.0,0005.31,0000.91,0000.15
2023-10-13 04:52:00,SystemResetWarning,0826.4,5.00,000.00,027.0,025.4,000.0,035.5,028.6,13.5,0000.0,0005.49,0000.93,0000.15
2023-10-13 04:53:00,SystemResetWarning,0826.5,5.01,000.00,027.0,025.4,000.0,035.5,028.6,13.5,0000.0,0005.32,0000.88,0000.15
2023-10-13 04:54:00,SystemResetWarning,0826.5,5.00,000.00,027.0,025.4,000.0,035.5,028.6,13.6,0000.0,0006.27,0000.81,0000.15
2023-10-13 04:55:00,SystemResetWarning,0826.5,5.00,000.00,027.0,025.4,000.0,035.5,028.6,13.6,0000.0,0005.03,0000.77,0000.14
2023-10-13 04:56:00,SystemResetWarning,0826.6,4.99,000.00,027.0,025.4,000.0,035.5,028.6,13.7,0000.0,0005.14,0000.74,0000.13
2023-10-13 04:57:00,SystemResetWarning,0826.6,5.00,000.00,027.0,025.4,000.0,035.5,028.6,13.7,0000.0,0005.17,0000.70,0000.13
2023-10-13 04:58:00,SystemResetWarning,0826.6,5.00,000.00,027.0,025.4,000.0,035.5,028.6,13.9,0000.0,0006.43,0000.65,0000.12
2023-10-13 04:59:00,SystemResetWarning,0826.6,4.99,000.00,027.0,025.4,000.0,035.5,028.6,14.0,0000.0,0005.87,0000.65,0000.12
